Challis, ID

6:15 PM MDT on August 16, 2017 (GMT -0600)
Challis

Weather History for KLLJ - March, 2014

Change the Weather History Date:

Monday, March 31, 2014

  Actual Average Record
Temperature  
Mean Temperature 33 °F 40 °F  
Max Temperature 45 °F 54 °F 72 °F (1900)
Min Temperature 20 °F 27 °F 11 °F (1924)
Degree Days  
Heating Degree Days 32 25  
Month to date heating degree days 853 896  
Since 1 July heating degree days 6602 6945  
Cooling Degree Days 0 0  
Month to date cooling degree days 0 0  
Year to date cooling degree days 0 0  
Moisture  
Dew Point 22 °F    
Average Humidity 62    
Maximum Humidity 92    
Minimum Humidity 31    
Precipitation  
Precipitation T in 0.03 in 0.38 in (1926)
Month to date precipitation 0.59 0.71  
Year to date precipitation 1.68 1.84  
Sea Level Pressure  
Sea Level Pressure 29.93 in    
Wind  
Wind Speed 4 mph (North)    
Max Wind Speed 17 mph    
Max Gust Speed 22 mph    
Visibility 10 miles    
Events Rain    
T = Trace of Precipitation, MM = Missing Value Source: NWS Daily Summary

Daily Weather History Graph

Daily Weather History Graph

Search for Another Location

Airport or City:

Trip Planner

Search our weather history database for the weather conditions in past years. The results will help you decide how hot, cold, wet, or windy it might be!

Date:

Astronomy

Mar. 31, 2014 Rise Set
Actual Time 7:19 AM MDT 8:03 PM MDT
Civil Twilight 6:50 AM MDT 8:32 PM MDT
Nautical Twilight 6:15 AM MDT 9:07 PM MDT
Astronomical Twilight 5:39 AM MDT 9:44 PM MDT
Moon 7:43 AM MDT (3/31) 9:30 PM MDT (3/31)
Length of Visible Light 13h 42m
Length of Day
12h 43m
New Moon, 1% of the Moon is Illuminated
Mar 31
New Moon
Apr 7
First Quarter
Apr 15
Full
Apr 22
Last Quarter
Apr 29
New

Hourly Weather History & Observations

Time (MDT) Temp. Windchill Dew Point Humidity Pressure Visibility Wind Dir Wind Speed Gust Speed Precip Events Conditions
12:55 AM 30.0 °F - 23.0 °F 75% 29.97 in 10.0 mi Calm Calm - N/A   Overcast
1:55 AM 28.0 °F - 23.0 °F 81% 29.99 in 10.0 mi Calm Calm - N/A   Overcast
2:55 AM 26.1 °F 20.5 °F 21.0 °F 81% 29.99 in 10.0 mi East 4.6 mph - N/A   Scattered Clouds
3:55 AM 21.9 °F 15.7 °F 19.0 °F 89% 30.00 in 10.0 mi NW 4.6 mph - N/A   Clear
4:55 AM 24.1 °F 19.7 °F 18.0 °F 77% 30.01 in 10.0 mi ESE 3.5 mph - N/A   Clear
5:55 AM 23.0 °F - 18.0 °F 81% 30.03 in 10.0 mi Calm Calm - N/A   Overcast
6:55 AM 21.9 °F - 17.1 °F 82% 30.05 in 10.0 mi Calm Calm - N/A   Scattered Clouds
7:55 AM 25.0 °F - 18.0 °F 75% 30.04 in 10.0 mi Calm Calm - N/A   Mostly Cloudy
8:55 AM 26.1 °F - 18.0 °F 71% 30.05 in 10.0 mi Calm Calm - N/A   Scattered Clouds
9:55 AM 30.9 °F - 19.9 °F 64% 30.03 in 10.0 mi Calm Calm - N/A   Partly Cloudy
10:55 AM 33.1 °F - 17.1 °F 52% 30.01 in 10.0 mi Calm Calm - N/A   Mostly Cloudy
11:55 AM 35.1 °F 32.2 °F 17.1 °F 48% 29.98 in 10.0 mi SSE 3.5 mph - N/A   Partly Cloudy
12:55 PM 41.0 °F 36.4 °F 17.1 °F 38% 29.92 in 10.0 mi Variable 6.9 mph - N/A   Clear
1:55 PM 44.1 °F 40.1 °F 16.0 °F 32% 29.88 in 10.0 mi Variable 6.9 mph - N/A   Mostly Cloudy
2:55 PM 44.1 °F 41.5 °F 18.0 °F 35% 29.87 in 10.0 mi Variable 4.6 mph - N/A   Overcast
3:55 PM 41.0 °F 33.1 °F 27.0 °F 57% 29.88 in 10.0 mi SE 15.0 mph - 0.00 in Rain Light Rain
4:05 PM 39.0 °F 31.4 °F 27.0 °F 62% 29.84 in 10.0 mi ESE 12.7 mph - 0.00 in   Overcast
4:55 PM 39.9 °F 35.1 °F 25.0 °F 55% 29.86 in 10.0 mi NW 6.9 mph - 0.00 in   Overcast
5:55 PM 39.0 °F 33.4 °F 28.0 °F 65% 29.87 in 10.0 mi NW 8.1 mph - N/A   Overcast
6:55 PM 37.9 °F - 26.1 °F 62% 29.86 in 10.0 mi Calm Calm - N/A   Clear
7:55 PM 35.1 °F 32.2 °F 27.0 °F 72% 29.86 in 10.0 mi NNW 3.5 mph - N/A   Scattered Clouds
8:55 PM 34.0 °F 29.8 °F 26.1 °F 73% 29.86 in 10.0 mi NW 4.6 mph - N/A   Overcast
9:55 PM 33.1 °F 27.7 °F 26.1 °F 75% 29.84 in 10.0 mi NNW 5.8 mph - N/A   Overcast
10:55 PM 30.9 °F 26.2 °F 25.0 °F 79% 29.83 in 10.0 mi NNW 4.6 mph - N/A   Clear
11:55 PM 28.9 °F 23.9 °F 24.1 °F 82% 29.82 in 10.0 mi South 4.6 mph - N/A   Clear